CW5709 Weather Reports


Display with metric or nautical units.
time (UTC)temp
F
wind
direction
speed
MPH
gust
MPH
rain 1hr
in
rain 24hr
in
rain mn
in
humidity
%
barometer
mb
20260904031526 55 0.0 0.0 0.00 0.32 0.32 94 1009.5
20260904030030 55 0.0 0.0 0.00 0.32 0.32 94 1009.6
20260904024512 55 0.0 0.0 0.00 0.32 0.32 94 1009.6
20260904023021 55 0.0 0.0 0.00 0.32 0.32 94 1009.6
20260904021538 56 0.0 0.0 0.02 0.32 0.32 94 1009.6
20260904020009 56 0.0 0.0 0.04 0.32 0.32 94 1009.7
20260904014510 56 0.0 0.0 0.04 0.32 0.32 94 1009.7
20260904013020 56 0.0 0.0 0.05 0.32 0.32 94 1009.8
20260904011532 56 0.0 0.0 0.03 0.30 0.30 94 1009.7
20260904010028 56 0.0 0.0 0.01 0.28 0.28 94 1009.7
20260904004509 56 0.0 0.0 0.02 0.28 0.28 94 1009.8
20260904003014 56 0.0 0.0 0.02 0.27 0.27 93 1009.8
20260904001518 56 0.0 0.0 0.02 0.27 0.27 93 1009.9
20260904000028 56 0.0 0.0 0.02 0.27 0.27 93 1010.0
20260903234529 57 0.0 0.0 0.02 0.27 0.26 94 1009.9
20260903233010 57 0.0 0.0 0.01 0.28 0.25 94 1010.0
20260903231516 58 0.0 0.0 0.01 0.30 0.25 94 1010.0
20260903230031 58 0.0 0.0 0.03 0.32 0.25 94 1010.0
20260903224534 57 0.0 0.0 0.04 0.33 0.24 94 1010.1
20260903223056 57 0.0 0.0 0.05 0.35 0.24 94 1010.2
20260903221513 56 0.0 0.0 0.07 0.37 0.24 94 1010.2
20260903220028 55 0.0 0.0 0.07 0.37 0.22 93 1010.3
20260903214526 56 0.0 0.0 0.09 0.37 0.20 93 1010.5
20260903213033 55 0.0 0.0 0.12 0.38 0.19 92 1010.3
20260903211531 55 0.0 0.0 0.10 0.37 0.17 91 1010.3
20260903210012 56 0.0 0.0 0.08 0.35 0.15 91 1010.7
20260903204519 56 0.0 0.0 0.04 0.31 0.11 91 1010.6
20260903203026 57 0.0 0.0 0.00 0.28 0.07 90 1010.5
20260903201530 58 0.0 0.0 0.00 0.28 0.07 91 1010.4
20260903200035 58 0.0 0.0 0.00 0.29 0.07 90 1010.4
20260903194522 58 0.0 0.0 0.00 0.29 0.07 90 1010.4
20260903193024 58 0.0 0.0 0.00 0.30 0.07 92 1010.6
20260903191529 57 0.0 0.0 0.00 0.30 0.07 93 1010.7
20260903190034 57 0.0 0.0 0.00 0.30 0.07 93 1010.7
20260903184532 57 0.0 0.0 0.01 0.31 0.07 93 1010.8
20260903183023 56 0.0 0.0 0.01 0.32 0.07 93 1010.7
20260903181527 57 0.0 0.0 0.02 0.34 0.07 94 1010.6
20260903180035 56 0.0 0.0 0.02 0.34 0.07 94 1010.5
20260903174532 56 0.0 0.0 0.02 0.35 0.06 94 1010.6
20260903173025 56 0.0 0.0 0.02 0.39 0.06 94 1010.7
20260903171528 56 0.0 0.0 0.01 0.40 0.05 94 1010.7
20260903170006 56 0.0 0.0 0.01 0.41 0.05 94 1010.6
20260903164509 55 0.0 0.0 0.00 0.42 0.04 94 1010.7
20260903163019 55 0.0 0.0 0.00 0.43 0.04 94 1010.8
20260903161522 55 0.0 0.0 0.00 0.45 0.04 93 1010.8
20260903160025 55 0.0 0.0 0.00 0.46 0.04 94 1010.7
20260903154508 55 0.0 0.0 0.00 0.49 0.04 94 1010.8
20260903153011 54 0.0 0.0 0.00 0.49 0.04 94 1010.9
20260903151515 54 0.0 0.0 0.00 0.49 0.04 94 1010.9
20260903150039 54 0.0 0.0 0.01 0.49 0.04 94 1010.9
20260903144537 54 0.0 0.0 0.01 0.49 0.04 94 1010.8
20260903143026 54 0.0 0.0 0.01 0.49 0.04 94 1010.9
20260903141522 54 0.0 0.0 0.01 0.49 0.04 94 1010.9
20260903140023 54 0.0 0.0 0.00 0.48 0.03 94 1010.9
20260903134543 54 0.0 0.0 0.00 0.48 0.03 94 1010.7
20260903133037 54 0.0 0.0 0.00 0.48 0.03 94 1010.5
20260903131510 54 0.0 0.0 0.00 0.48 0.03 94 1010.6
20260903130019 54 0.0 0.0 0.00 0.48 0.03 94 1010.6
20260903124527 54 0.0 0.0 0.00 0.48 0.03 94 1010.6
20260903123028 54 0.0 0.0 0.00 0.48 0.03 94 1010.6
20260903121530 54 0.0 0.0 0.00 0.48 0.03 94 1010.6
20260903120016 54 0.0 0.0 0.00 0.48 0.03 94 1010.7
20260903114526 54 0.0 0.0 0.00 0.48 0.03 94 1010.7
20260903113027 54 0.0 0.0 0.00 0.48 0.03 94 1010.8
20260903111532 54 0.0 0.0 0.01 0.48 0.03 94 1010.8
20260903110033 54 0.0 0.0 0.01 0.48 0.03 94 1010.8
20260903104517 54 0.0 0.0 0.02 0.48 0.03 94 1010.9
20260903103026 54 0.0 0.0 0.02 0.48 0.03 94 1011.0
20260903101532 54 0.0 0.0 0.01 0.47 0.02 94 1011.1
20260903100031 54 0.0 0.0 0.01 0.47 0.02 94 1011.1
20260903094539 54 0.0 0.0 0.00 0.46 0.01 94 1011.0
20260903093035 54 0.0 0.0 0.00 0.46 0.01 94 1011.0
20260903091527 54 0.0 0.0 0.00 0.46 0.01 94 1011.1
20260903090034 54 0.0 0.0 0.00 0.46 0.01 94 1011.3
20260903084532 55 0.0 0.0 0.00 0.46 0.01 94 1011.3
20260903083017 55 0.0 0.0 0.01 0.46 0.01 94 1011.3
20260903081537 55 0.0 0.0 0.01 0.46 0.01 94 1011.4
20260903080006 55 0.0 0.0 0.01 0.46 0.01 94 1011.3
20260903074509 55 0.0 0.0 0.01 0.46 0.01 94 1011.5
20260903073021 55 0.0 0.0 0.00 0.45 0.00 94 1011.4
20260903071520 55 0.0 0.0 0.00 0.45 0.00 94 1011.2
20260903070025 55 0.0 0.0 0.00 0.45 0.00 94 1011.2
20260903064508 55 0.0 0.0 0.00 0.45 0.45 94 1011.4
20260903063015 55 0.0 0.0 0.00 0.45 0.45 94 1011.2
20260903061517 55 0.0 0.0 0.00 0.45 0.45 94 1011.2
20260903060026 55 0.0 0.0 0.00 0.45 0.45 94 1011.3
20260903054527 55 0.0 0.0 0.00 0.45 0.45 94 1011.1
20260903053010 55 0.0 0.0 0.00 0.45 0.45 94 1011.3
20260903051516 55 0.0 0.0 0.00 0.45 0.45 94 1011.3
20260903050024 54 0.0 0.0 0.00 0.45 0.45 94 1011.1
20260903044527 54 0.0 0.0 0.00 0.45 0.45 94 1011.1
20260903043031 55 0.0 0.0 0.00 0.45 0.45 94 1011.0
20260903041513 55 0.0 0.0 0.00 0.45 0.45 94 1010.7
20260903040017 55 0.0 0.0 0.00 0.45 0.45 94 1010.4
20260903034524 55 0.0 0.0 0.00 0.45 0.45 94 1010.3
20260903033030 56 0.0 0.0 0.00 0.45 0.45 94 1010.1